Home   Weather   City of Melbourne   Past weeks
Flag for USA

Past Weather in City of Melbourne, Arkansas, USA — Yesterday and Last 2 Weeks

Now
74 °F

Passing clouds.


Feels Like: 73 °F
Forecast: 83 / 65 °F
Wind: No wind

Location: Batesville Regional Airport

Current Time: May 21, 2019 at 3:56:32 am

Latest Report: May 21, 2019 at 2:56 am


Visibility: 10 mi

Pressure: 29.80 "Hg

Humidity: 88%

Dew Point: 70 °F

Location of City of MelbourneLocation

Past Weather in City of Melbourne — Graph

°F

City of Melbourne Temperature Yesterday

Maximum temperature yesterday: 81 °F (at 3:56 pm)
Minimum temperature yesterday: 56 °F (at 3:56 am)
Average temperature yesterday: 71 °F

High & Low Weather Summary for the Past Weeks

 TemperatureHumidityPressure
High88 °F (May 16, 3:56 pm)100% (May 7, 4:56 am)30.17 "Hg (May 7, 4:56 am)
Low48 °F (May 13, 4:56 am)43% (May 17, 2:56 pm)29.58 "Hg (May 8, 8:56 pm)
Average66 °F81%29.93 "Hg
* Reported May 6 12:56 am — May 21 12:56 am, City of Melbourne. Weather by CustomWeather, © 2019

Note: Actual official high and low records may vary slightly from our data, if they occured in-between our weather recording intervals... More about our weather records

Advertising

City of Melbourne Weather History for the Previous 24 Hours

Scroll right to see more
 ConditionsComfort  
Time TempWeatherWind HumidityBarometerVisibility
12:56 am
Tue, May 21
77 °FOvercast.9 mph79%29.80 "Hg10 mi
11:56 pm
Mon, May 20
77 °FMostly cloudy.8 mph79%29.81 "Hg10 mi
10:56 pm78 °FOvercast.8 mph76%29.82 "Hg10 mi
9:56 pm78 °FOvercast.8 mph76%29.82 "Hg9 mi
8:56 pm78 °FOvercast.9 mph76%29.83 "Hg10 mi
7:56 pm79 °FBroken clouds.8 mph74%29.83 "Hg10 mi
6:56 pm79 °FCloudy.9 mph72%29.84 "Hg10 mi
5:56 pm81 °FSunny.15 mph67%29.85 "Hg10 mi
4:56 pm80 °FPartly sunny.12 mph67%29.90 "Hg10 mi
3:56 pm81 °FPartly sunny.10 mph65%29.94 "Hg10 mi
2:56 pm80 °FPartly sunny.13 mph64%29.97 "Hg10 mi
1:56 pm79 °FSunny.10 mph62%30.00 "Hg10 mi
12:56 pm77 °FSunny.10 mph60%30.02 "Hg10 mi
11:56 am75 °FSunny.12 mph62%30.03 "Hg10 mi
10:56 am73 °FSunny.12 mph59%30.05 "Hg10 mi
9:56 am71 °FSunny.6 mph63%30.06 "Hg10 mi
8:56 am67 °FSunny.6 mph73%30.07 "Hg10 mi
7:56 am61 °FSunny.No wind90%30.07 "Hg10 mi
6:56 am57 °FScattered clouds.3 mph96%30.06 "Hg10 mi
5:56 am56 °FClear.No wind97%30.04 "Hg10 mi
4:56 am56 °FClear.5 mph97%30.02 "Hg10 mi
3:56 am56 °FClear.5 mph97%30.00 "Hg10 mi
Weather by CustomWeather, © 2019

See weather overview